WD6FGE Weather Reports


Display with metric or nautical units.
time (UTC)temp
F
wind
direction
speed
MPH
gust
MPH
rain 1hr
in
rain 24hr
in
rain mn
in
humidity
%
barometer
mb
20171218102801 25 256 0.0 0.0 0.00 0.00 0.00 85 1027.6
20171218101758 25 256 0.0 0.0 0.00 0.00 0.00 86 1027.6
20171218100757 25 256 0.0 0.0 0.00 0.00 0.00 85 1027.4
20171218095732 25 256 0.0 0.0 0.00 0.00 0.00 85 1027.3
20171218094735 26 256 0.0 0.0 0.00 0.00 0.00 85 1027.3
20171218093739 26 256 0.0 0.0 0.00 0.00 0.00 85 1027.2
20171218092737 26 256 0.0 0.0 0.00 0.00 0.00 85 1027.3
20171218091708 26 256 0.0 0.0 0.00 0.00 0.00 84 1027.3
20171218090705 26 256 0.0 0.0 0.00 0.00 0.00 84 1027.2
20171218085704 27 256 0.0 0.0 0.00 0.00 0.00 83 1027.1
20171218084654 27 256 0.0 0.0 0.00 0.00 0.00 85 1027.1
20171218083658 27 256 0.0 0.0 0.00 0.00 0.00 85 1027.0
20171218082718 27 256 0.0 0.0 0.00 0.00 0.00 83 1026.9
20171218081700 27 256 0.0 0.0 0.00 0.00 0.00 83 1026.8
20171218080653 27 256 0.0 0.0 0.00 0.00 0.00 83 1026.6
20171218075616 27 256 0.0 0.0 0.00 0.00 0.00 83 1026.7
20171218074629 27 256 0.0 0.0 0.00 0.00 0.00 82 1026.5
20171218073643 27 256 0.0 0.0 0.00 0.00 0.00 81 1026.6
20171218072623 28 256 0.0 0.0 0.00 0.00 0.00 82 1026.5
20171218071600 28 208 0.0 0.0 0.00 0.00 0.00 81 1026.5
20171218070533 28 140 0.0 0.0 0.00 0.00 0.00 80 1026.5
20171218065500 29 140 0.0 0.0 0.00 0.00 0.00 81 1026.4
20171218064516 29 140 0.0 0.0 0.00 0.00 0.00 79 1026.3
20171218063525 30 140 0.0 0.0 0.00 0.00 0.00 80 1026.4
20171218062448 30 140 0.0 0.0 0.00 0.00 0.00 79 1026.3
20171218061442 30 140 0.0 0.0 0.00 0.00 0.00 79 1026.3
20171218060413 31 140 0.0 0.0 0.00 0.00 0.00 77 1026.3
20171218055426 32 140 0.0 0.0 0.00 0.00 0.00 76 1026.2
20171218054418 32 140 0.0 0.0 0.00 0.00 0.00 76 1026.2
20171218053427 33 140 0.0 0.0 0.00 0.00 0.00 75 1026.1
20171218052416 33 140 0.0 0.0 0.00 0.00 0.00 74 1026.2
20171218051419 33 140 0.0 0.0 0.00 0.00 0.00 74 1026.1
20171218050411 33 140 0.0 0.0 0.00 0.00 0.00 75 1026.0
20171218045418 33 140 0.0 0.0 0.00 0.00 0.00 76 1025.9
20171218044424 33 139 0.0 2.0 0.00 0.00 0.00 77 1026.0
20171218043406 33 140 0.0 1.0 0.00 0.00 0.00 77 1025.9
20171218042347 33 229 0.0 2.0 0.00 0.00 0.00 76 1025.8
20171218041329 33 229 0.0 2.0 0.00 0.00 0.00 76 1025.8
20171218040311 33 144 1.0 5.0 0.00 0.00 0.00 76 1025.6
20171218035312 34 289 1.0 3.0 0.00 0.00 0.00 71 1025.5
20171218034300 34 151 0.0 0.0 0.00 0.00 0.00 70 1025.7
20171218033321 34 232 0.0 1.0 0.00 0.00 0.00 70 1025.8
20171218032245 34 232 0.0 0.0 0.00 0.00 0.00 70 1025.7
20171218031221 34 232 0.0 1.0 0.00 0.00 0.00 70 1025.7
20171218030154 35 232 0.0 0.0 0.00 0.00 0.00 69 1025.7
20171218025143 35 155 0.0 1.0 0.00 0.00 0.00 70 1026.0
20171218024153 35 154 0.0 0.0 0.00 0.00 0.00 68 1026.0
20171218023119 35 316 0.0 1.0 0.00 0.00 0.00 66 1026.2
20171218022135 35 316 0.0 1.0 0.00 0.00 0.00 67 1026.1
20171218021146 36 316 0.0 1.0 0.00 0.00 0.00 63 1026.0
20171218020145 36 316 0.0 1.0 0.00 0.00 0.00 66 1026.0
20171218015123 37 316 0.0 1.0 0.00 0.00 0.00 62 1025.9
20171218014117 38 316 0.0 0.0 0.00 0.00 0.00 61 1025.8
20171218013055 39 316 0.0 0.0 0.00 0.00 0.00 58 1025.8
20171218012109 39 316 0.0 0.0 0.00 0.00 0.00 56 1025.9
20171218011040 40 316 0.0 0.0 0.00 0.00 0.00 54 1025.9
20171218010039 41 316 0.0 0.0 0.00 0.00 0.00 53 1025.8
20171218005102 43 316 0.0 0.0 0.00 0.00 0.00 49 1025.6
20171218004031 44 316 0.0 0.0 0.00 0.00 0.00 48 1025.6
20171218003045 44 316 0.0 1.0 0.00 0.00 0.00 47 1025.6
20171218002029 44 316 0.0 0.0 0.00 0.00 0.00 49 1025.5
20171218001038 45 316 0.0 1.0 0.00 0.00 0.00 47 1025.5
20171218000058 46 317 0.0 5.0 0.00 0.00 0.00 46 1025.2
20171217235110 46 292 1.0 5.0 0.00 0.00 0.00 46 1025.2
20171217234108 47 300 1.0 4.0 0.00 0.00 0.00 44 1025.2
20171217233049 48 340 0.0 3.0 0.00 0.00 0.00 43 1025.1
20171217232108 48 300 1.0 4.0 0.00 0.00 0.00 42 1025.0
20171217231056 49 23 0.0 4.0 0.00 0.00 0.00 40 1024.8
20171217230021 49 55 0.0 1.0 0.00 0.00 0.00 40 1024.9
20171217224944 49 86 1.0 6.0 0.00 0.00 0.00 41 1024.6
20171217223937 50 89 1.0 5.0 0.00 0.00 0.00 39 1024.7
20171217222953 50 116 1.0 5.0 0.00 0.00 0.00 38 1025.0
20171217222012 50 31 1.0 3.0 0.00 0.00 0.00 35 1025.0
20171217220944 51 61 1.0 7.0 0.00 0.00 0.00 35 1025.1
20171217215951 51 61 2.0 7.0 0.00 0.00 0.00 35 1024.7
20171217214921 50 88 2.0 8.0 0.00 0.00 0.00 36 1024.8
20171217213854 49 78 3.0 8.0 0.00 0.00 0.00 37 1024.8
20171217212825 49 36 2.0 7.0 0.00 0.00 0.00 35 1024.9
20171217211833 49 57 2.0 8.0 0.00 0.00 0.00 37 1024.9
20171217210839 49 54 2.0 8.0 0.00 0.00 0.00 37 1024.9
20171217205829 49 281 2.0 8.0 0.00 0.00 0.00 36 1024.9
20171217204826 48 306 3.0 8.0 0.00 0.00 0.00 38 1025.1
20171217203834 47 9 2.0 8.0 0.00 0.00 0.00 38 1025.2
20171217202826 47 31 3.0 14.0 0.00 0.00 0.00 38 1025.4
20171217201838 47 0 4.0 14.0 0.00 0.00 0.00 37 1025.7
20171217200836 46 355 3.0 11.0 0.00 0.00 0.00 39 1025.9
20171217195815 46 346 3.0 11.0 0.00 0.00 0.00 39 1026.1
20171217194812 46 327 3.0 9.0 0.00 0.00 0.00 40 1026.3
20171217193758 45 294 3.0 8.0 0.00 0.00 0.00 41 1026.4
20171217192734 45 5 3.0 8.0 0.00 0.00 0.00 41 1026.4
20171217191728 44 47 3.0 7.0 0.00 0.00 0.00 42 1026.7
20171217190726 42 320 2.0 7.0 0.00 0.00 0.00 44 1026.9
20171217185744 42 49 2.0 7.0 0.00 0.00 0.00 45 1027.0
20171217184746 41 289 2.0 8.0 0.00 0.00 0.00 49 1027.2
20171217183757 41 42 3.0 8.0 0.00 0.00 0.00 49 1027.2
20171217182735 41 310 3.0 9.0 0.00 0.00 0.00 50 1027.3
20171217181701 40 5 4.0 11.0 0.00 0.00 0.00 51 1027.5
20171217180637 39 312 4.0 11.0 0.00 0.00 0.00 52 1027.5
20171217175607 38 355 4.0 10.0 0.00 0.00 0.00 53 1027.4
20171217174552 38 18 5.0 11.0 0.00 0.00 0.00 54 1027.6
20171217173529 38 13 3.0 11.0 0.00 0.00 0.00 52 1028.0
20171217172551 37 313 2.0 5.0 0.00 0.00 0.00 55 1028.0
20171217171609 35 355 1.0 4.0 0.00 0.00 0.00 57 1028.1
20171217170553 34 144 2.0 3.0 0.00 0.00 0.00 62 1028.2
20171217165525 32 134 2.0 4.0 0.00 0.00 0.00 66 1028.4
20171217164506 31 126 1.0 7.0 0.00 0.00 0.00 71 1028.3
20171217163409 28 0 1.0 7.0 0.00 0.00 0.00 75 1028.3
20171217162344 28 96 0.0 1.0 0.00 0.00 0.00 74 1028.4
20171217161324 28 96 1.0 3.0 0.00 0.00 0.00 74 1028.3
20171217160309 28 28 0.0 2.0 0.00 0.00 0.00 73 1028.2
20171217155246 29 245 1.0 6.0 0.00 0.00 0.00 72 1027.9
20171217154256 28 330 1.0 6.0 0.00 0.00 0.00 72 1028.0
20171217153311 28 305 1.0 3.0 0.00 0.00 0.00 72 1028.0
20171217152312 28 276 1.0 5.0 0.00 0.00 0.00 72 1027.8
20171217151309 28 278 1.0 3.0 0.00 0.00 0.00 71 1027.6
20171217150257 28 277 1.0 5.0 0.00 0.00 0.00 72 1027.4
20171217145314 28 318 1.0 6.0 0.00 0.00 0.00 72 1027.3
20171217144241 28 290 2.0 6.0 0.00 0.00 0.00 72 1027.4
20171217143222 28 312 2.0 4.0 0.00 0.00 0.00 72 1027.2
20171217142208 28 297 2.0 5.0 0.00 0.00 0.00 73 1027.2
20171217141140 27 0 2.0 6.0 0.00 0.00 0.00 73 1027.2
20171217140126 27 296 2.0 6.0 0.00 0.00 0.00 73 1027.4
20171217135050 27 18 0.0 2.0 0.00 0.00 0.00 73 1027.4
20171217134036 27 47 0.0 2.0 0.00 0.00 0.00 72 1027.2
20171217133054 27 32 0.0 1.0 0.00 0.00 0.00 73 1027.2
20171217132043 27 32 0.0 0.0 0.00 0.00 0.00 72 1027.3
20171217131106 27 25 1.0 4.0 0.00 0.00 0.00 72 1027.4
20171217130112 27 13 0.0 2.0 0.00 0.00 0.00 73 1027.5
20171217125039 27 32 0.0 1.0 0.00 0.00 0.00 73 1027.6
20171217124022 27 32 0.0 1.0 0.00 0.00 0.00 74 1027.5
20171217123028 27 53 0.0 3.0 0.00 0.00 0.00 74 1027.3
20171217122011 28 35 0.0 3.0 0.00 0.00 0.00 73 1027.2
20171217121012 29 36 0.0 3.0 0.00 0.00 0.00 72 1027.2
20171217120012 29 28 1.0 6.0 0.00 0.00 0.00 71 1027.4
20171217114956 29 39 1.0 6.0 0.00 0.00 0.00 69 1027.6
20171217113929 29 321 1.0 6.0 0.00 0.00 0.00 69 1027.6
20171217112907 29 292 1.0 6.0 0.00 0.00 0.00 70 1027.6
20171217111908 29 317 2.0 4.0 0.00 0.00 0.00 70 1027.5
20171217110855 29 10 0.0 7.0 0.00 0.00 0.00 68 1027.5
20171217105856 30 333 1.0 7.0 0.00 0.00 0.00 67 1027.5
20171217104834 30 9 1.0 4.0 0.00 0.00 0.00 67 1027.5
20171217103814 31 28 1.0 7.0 0.00 0.00 0.00 65 1027.5